Theta_e
304 304 304 304 304 303 302 303 306 305 302 301 300 299 299 299 298 298 298 298 298 298 298 298 298 298 299 299 299 299 298 298 298 298 299 300 301 302 303 304 306 308 308 308 309 307 310 316 318 319 320 320 321 321 321 322 322 322 324 326 327 328 328 328 328 326 326 328 328 326 323 324 325 325 324 325 324 323 324 325 324 324 323 323 324 323 323 323
303 303 304 304 304 303 302 304 306 306 302 301 300 299 299 298 298 297 298 297 298 298 297 298 298 298 299 298 298 298 298 298 298 298 299 300 301 302 302 303 305 307 304 303 306 306 309 316 316 317 319 320 321 321 321 322 322 322 324 326 326 328 326 323 325 325 325 326 326 327 325 323 325 325 324 326 326 324 324 325 324 325 324 324 324 323 323 322
302 303 303 303 304 303 302 305 306 305 302 300 300 299 298 298 298 297 297 297 298 298 298 298 297 298 298 298 298 298 298 299 299 299 299 300 301 302 302 304 306 306 303 300 304 305 308 314 315 316 318 318 320 321 322 321 322 322 323 326 326 326 324 320 320 321 321 322 323 327 326 324 325 325 325 326 326 324 324 325 324 324 324 324 324 324 323 323
303 302 302 302 303 303 303 305 305 304 301 300 299 298 298 297 298 298 297 297 297 298 298 298 297 297 297 298 298 298 300 300 301 301 300 300 300 301 304 306 305 303 300 300 304 306 308 312 314 315 316 317 318 321 321 322 322 322 323 325 323 321 323 321 319 318 318 318 321 325 326 325 326 326 325 325 326 326 324 324 324 324 324 323 324 324 324 323
302 302 302 302 303 302 303 304 304 302 300 299 298 297 297 297 297 298 297 297 297 298 298 297 297 297 297 298 297 299 301 302 306 307 303 301 301 303 305 304 302 300 299 302 305 307 308 310 313 314 315 316 318 320 321 322 321 322 322 322 320 318 322 322 318 317 318 319 321 324 327 325 325 326 326 325 326 326 324 324 324 323 324 323 324 324 324 324
302 302 303 303 303 302 301 302 301 300 298 298 297 297 296 297 297 297 297 297 297 297 298 298 297 297 297 297 297 299 301 303 310 311 306 304 305 305 303 300 299 299 300 303 306 307 308 309 312 313 314 316 318 319 321 322 321 322 321 317 318 319 321 321 317 317 318 320 322 323 325 324 325 325 324 325 325 324 323 323 324 323 324 323 323 324 324 324
302 302 302 303 303 302 300 301 300 298 297 297 296 296 296 296 297 297 297 297 297 297 297 297 297 296 296 297 297 298 300 303 308 311 308 307 306 303 301 299 299 299 301 304 306 307 308 309 312 313 314 316 317 317 318 320 320 322 320 316 317 317 317 318 317 317 317 319 321 322 322 321 324 323 320 323 325 324 323 322 322 323 323 322 322 322 323 323
302 302 302 302 302 301 300 300 298 297 297 296 296 295 296 296 297 297 297 297 297 297 297 297 297 296 296 297 297 298 299 300 303 308 308 306 304 303 302 301 299 299 301 304 306 307 309 309 311 313 314 315 314 315 317 318 319 321 320 316 316 314 313 314 315 316 316 317 318 319 319 315 318 318 315 320 324 324 324 324 323 323 322 322 320 320 320 320
302 302 302 301 300 299 300 299 297 297 297 295 295 295 296 296 297 297 297 297 297 297 297 297 297 296 296 297 297 298 299 300 301 305 307 306 305 305 304 302 300 300 302 305 306 308 308 308 311 313 313 313 313 313 315 319 319 319 319 317 316 314 311 311 314 314 313 315 314 316 317 312 311 314 316 320 321 321 323 324 325 324 323 322 322 321 321 319
301 301 301 300 298 299 300 298 297 297 296 295 295 295 296 296 297 297 297 297 297 297 297 297 297 296 297 297 298 300 302 303 302 303 307 308 308 307 305 304 301 299 302 305 306 307 308 308 311 312 311 311 313 311 312 318 317 315 317 317 317 315 310 309 311 312 311 312 311 314 317 312 308 312 319 319 315 317 319 321 322 323 322 322 323 323 322 320
301 301 301 299 298 299 299 297 297 296 295 295 295 295 296 296 297 297 297 297 297 297 297 296 296 296 297 297 298 301 303 304 304 304 305 307 307 306 305 303 301 299 301 303 305 306 307 308 309 311 311 309 311 308 308 315 314 312 314 316 315 312 310 308 307 309 310 310 309 310 313 308 306 311 316 315 311 312 313 315 316 317 319 320 322 322 322 321
301 300 301 299 299 299 298 297 296 296 295 295 295 296 296 296 297 297 297 297 297 297 296 296 296 296 297 297 297 299 301 303 304 304 304 305 305 306 304 302 301 300 301 302 303 304 305 307 307 310 310 308 309 308 308 311 310 310 312 315 315 309 311 310 306 306 308 310 307 308 314 313 310 311 311 311 310 311 311 310 309 309 313 317 321 322 321 321
300 300 300 299 299 299 297 296 296 295 295 295 295 296 296 296 296 297 297 297 297 297 296 296 295 296 296 297 298 298 299 301 303 303 303 303 304 304 304 302 301 301 302 304 304 304 305 307 307 308 308 306 307 307 307 306 305 309 310 313 314 310 314 310 304 306 306 308 306 309 317 318 315 309 305 307 308 308 309 308 307 307 308 311 316 319 321 321
299 300 300 298 298 298 297 296 296 295 295 295 296 295 296 296 296 297 297 297 297 297 296 295 295 296 295 297 300 300 300 300 301 302 302 303 303 303 302 302 301 301 303 304 305 305 306 307 307 307 307 306 306 305 308 307 306 310 308 308 310 311 316 308 301 306 309 307 305 310 317 315 315 310 303 304 305 305 306 306 307 307 308 310 312 314 316 317
299 299 299 296 297 298 296 296 295 295 295 295 295 296 296 296 296 297 297 298 298 297 297 296 296 296 295 298 301 302 301 301 301 301 302 302 302 301 301 301 302 302 303 304 305 305 306 307 307 307 306 306 306 306 309 310 309 310 309 309 308 308 314 309 301 305 311 309 304 309 315 312 312 308 303 303 305 305 304 305 306 306 308 310 310 310 310 309
299 299 297 295 297 297 295 295 295 294 295 295 295 295 296 296 297 298 298 298 298 298 298 297 296 296 297 300 302 302 302 302 302 302 302 302 301 301 301 301 301 302 304 305 305 305 306 307 306 305 305 306 308 309 309 309 308 308 308 309 308 307 309 308 304 302 306 309 305 307 313 312 308 304 302 303 305 305 303 304 305 305 307 308 308 307 306 305
299 299 297 296 296 295 294 295 294 294 295 294 295 295 296 296 297 298 298 300 300 300 299 298 297 297 298 301 302 302 302 302 302 302 302 302 302 302 301 300 301 303 305 305 305 305 305 306 305 305 305 306 308 309 308 308 308 306 305 306 306 306 306 307 306 301 302 308 307 306 309 311 309 302 300 302 303 304 304 304 305 305 306 306 306 304 304 304
298 298 297 295 295 294 293 294 294 294 294 295 295 295 295 297 298 298 298 300 301 300 301 300 300 300 300 300 301 302 302 302 302 302 301 302 303 302 302 300 300 303 304 305 304 304 304 303 304 306 306 305 305 307 307 307 307 306 305 306 304 304 304 305 306 302 302 307 307 307 306 307 309 304 300 301 302 302 302 303 304 304 304 304 304 303 303 303
297 297 295 294 294 293 293 293 293 294 295 295 295 294 295 297 299 299 297 298 301 302 302 301 300 301 301 299 300 301 302 303 302 302 301 302 303 302 302 301 300 302 302 303 303 302 302 302 302 305 305 305 305 306 306 306 307 306 305 305 304 304 304 304 306 304 303 305 307 306 305 305 306 305 302 301 301 301 301 301 301 301 301 301 301 300 300 299
296 294 295 294 294 292 293 293 293 294 295 295 295 294 295 296 297 299 296 296 298 299 299 298 298 298 298 298 298 299 300 302 302 302 302 302 303 303 302 301 300 301 301 302 303 300 301 303 303 304 304 305 305 305 305 305 307 306 304 304 303 303 304 304 304 304 302 305 307 305 305 306 305 306 303 299 300 301 298 297 296 297 298 298 298 298 298 298
295 294 295 295 293 292 292 292 293 294 294 294 294 294 294 293 295 297 295 295 296 296 296 297 298 298 298 297 298 298 299 300 301 302 302 302 303 303 302 301 301 301 300 300 301 300 300 302 302 302 304 305 304 303 303 303 305 306 305 304 303 303 304 304 303 303 302 304 307 304 305 307 304 306 303 299 301 299 294 293 293 294 296 297 297 297 298 298
295 294 295 294 293 292 292 292 293 294 293 293 294 294 294 293 294 295 294 296 296 296 297 298 297 297 298 297 298 298 299 300 301 302 302 302 303 303 301 301 302 302 301 300 300 301 301 301 301 301 302 303 303 302 302 302 303 306 305 303 304 303 303 303 301 301 302 304 307 305 304 307 305 305 302 298 298 295 292 294 293 293 294 294 294 294 296 297
294 295 295 294 293 292 292 293 293 293 293 293 293 294 293 293 294 294 295 296 296 297 298 297 297 297 297 297 297 298 299 300 300 301 301 301 302 302 301 301 302 302 302 302 302 302 302 301 300 300 301 301 302 302 302 302 301 302 302 303 304 302 301 303 301 299 301 302 304 304 303 307 306 304 299 295 294 292 292 293 292 292 292 290 291 291 293 295
294 295 295 294 292 291 292 293 293 292 292 292 293 293 293 294 294 295 295 295 297 298 298 297 298 297 297 298 298 299 299 299 300 301 300 301 302 301 301 302 302 302 302 302 302 302 302 300 297 298 300 300 301 301 301 302 302 301 300 301 302 302 301 302 301 300 302 300 300 302 305 308 307 305 300 294 292 292 292 291 290 290 289 289 290 290 291 291
295 295 294 293 292 291 293 293 292 292 292 292 293 293 293 293 293 294 295 296 298 299 298 298 298 297 297 298 298 298 299 299 299 300 300 300 302 301 301 301 301 302 303 302 301 302 302 299 297 299 299 298 301 301 300 302 302 301 300 300 302 304 303 301 301 302 303 301 301 301 305 312 311 305 299 295 294 292 290 289 288 288 288 288 289 288 288 289
294 294 292 292 291 292 293 292 291 291 291 292 292 293 294 293 293 294 296 301 301 298 298 298 297 298 297 297 298 298 298 299 298 298 299 301 302 301 300 300 299 300 303 302 301 303 302 298 297 300 300 298 300 300 299 300 300 301 300 299 302 303 303 303 301 302 304 303 300 298 303 312 310 302 294 293 293 291 289 288 288 288 287 287 287 286 286 287
293 293 292 291 291 292 292 291 291 291 292 292 292 293 294 294 294 294 296 303 301 297 298 298 298 297 295 296 298 298 298 298 298 298 298 301 302 300 300 301 299 299 299 300 302 301 300 299 298 298 299 298 299 299 299 299 299 300 298 297 299 300 301 304 302 302 305 301 297 298 302 304 305 301 293 291 293 291 289 288 287 287 287 286 286 285 285 285
292 292 291 291 291 292 292 291 291 291 291 292 292 293 295 295 295 295 298 302 298 296 298 297 297 296 294 297 298 298 298 297 298 298 298 300 300 299 300 300 300 301 297 298 304 299 297 302 301 298 299 298 299 298 298 298 298 299 297 296 297 297 300 303 301 302 302 299 300 302 299 298 306 305 294 293 296 292 289 287 286 286 285 284 284 283 283 283
291 291 290 290 291 292 291 291 291 291 291 291 291 292 295 296 295 296 299 300 295 295 297 296 297 295 293 297 297 296 297 297 297 298 298 300 299 298 300 298 298 301 296 295 303 302 297 299 298 298 300 299 298 296 295 297 298 296 295 296 296 296 298 300 301 303 302 300 301 302 299 298 307 306 295 294 297 292 289 287 285 285 283 282 282 281 282 283
290 291 290 290 291 291 291 291 290 290 291 291 290 293 296 296 298 300 300 298 294 293 294 294 295 292 292 297 297 294 295 295 295 297 298 299 298 296 297 296 296 300 299 297 300 299 295 294 296 299 299 297 297 295 294 296 297 296 297 299 299 299 300 302 303 303 302 300 299 301 300 298 303 303 294 293 294 290 289 286 284 283 282 281 280 279 280 282
290 290 290 291 291 290 291 290 290 291 291 291 291 294 295 295 301 305 299 295 293 293 294 294 293 292 292 294 295 294 295 294 292 296 299 299 298 296 295 296 296 300 304 302 299 297 294 295 297 298 296 295 297 297 294 294 295 298 304 303 301 301 302 304 304 301 300 301 299 298 297 296 300 299 291 289 288 287 287 285 282 282 281 280 279 278 279 280
290 290 290 290 290 291 290 290 291 291 291 291 291 293 296 297 299 301 296 293 293 293 294 293 292 292 291 291 292 291 293 293 292 295 298 297 296 292 292 294 293 298 303 301 299 299 298 297 295 296 296 295 298 299 296 296 297 300 304 303 300 299 300 301 301 300 299 298 295 293 295 297 298 294 289 287 285 284 284 283 281 281 280 279 278 277 278 279
290 289 290 290 290 291 290 290 291 290 290 291 290 292 299 300 294 295 295 294 292 291 292 292 291 291 291 292 292 289 290 291 291 293 294 295 295 291 290 289 288 294 298 296 297 300 299 297 295 296 297 294 295 298 298 298 299 299 301 302 300 299 299 300 299 298 299 298 293 292 296 299 298 291 286 285 284 283 282 281 281 280 279 279 278 277 277 278
289 289 290 290 290 291 291 291 290 290 290 290 291 293 297 297 293 293 294 292 290 290 291 291 291 290 290 291 290 289 291 291 289 291 293 295 297 293 291 289 287 292 294 294 297 298 298 299 296 295 295 293 294 295 297 299 299 298 300 301 299 300 301 299 299 300 299 297 294 293 296 300 299 291 285 284 283 282 282 281 280 280 279 278 277 277 277 277
289 289 290 290 291 290 290 290 289 291 289 289 295 297 295 294 291 290 292 291 290 291 290 289 290 292 292 291 289 288 290 290 289 291 293 294 293 291 290 288 285 288 291 293 296 294 295 297 294 291 290 291 292 291 293 297 299 298 298 299 298 300 301 298 296 298 297 297 296 295 295 292 290 286 283 283 282 281 282 281 280 279 278 278 277 276 276 277
289 290 290 290 290 290 290 290 290 291 288 292 300 297 291 291 288 288 290 289 289 290 290 291 292 293 293 292 291 289 289 289 289 291 292 290 288 288 288 287 284 285 288 291 293 292 294 296 294 291 291 290 289 291 291 293 298 298 297 299 296 296 300 298 294 292 294 296 296 295 294 288 286 286 284 282 282 281 281 280 279 279 278 277 277 276 276 276
288 290 290 290 289 290 290 289 290 291 289 294 301 293 286 287 287 288 288 287 287 288 289 293 291 289 291 292 291 289 288 289 289 290 291 289 288 287 286 286 285 284 284 286 290 290 291 294 293 291 294 291 287 289 291 290 294 298 298 298 294 293 298 299 297 296 295 295 295 295 295 291 291 291 285 282 283 281 280 280 279 279 278 277 276 275 275 276
288 290 290 289 289 289 289 289 290 290 291 296 296 289 285 287 287 286 285 285 287 288 289 291 290 287 289 291 290 287 288 290 290 290 291 290 288 285 284 285 285 284 282 285 289 289 289 293 292 288 290 292 289 291 294 291 291 294 295 295 295 297 299 297 297 298 296 296 296 296 295 293 293 291 284 282 283 281 280 279 278 278 277 277 276 275 275 276
289 290 289 288 289 289 289 290 290 290 294 297 292 287 286 287 286 285 284 285 286 288 289 289 288 288 288 288 289 287 286 289 289 288 289 289 287 284 283 284 284 284 282 284 288 288 288 291 293 289 287 289 292 294 294 292 291 292 292 294 295 296 298 296 296 297 297 298 296 296 297 294 290 287 283 283 283 280 280 279 278 278 277 276 275 274 274 275
289 290 289 288 289 289 288 291 290 291 294 291 287 287 286 286 286 284 284 285 286 287 288 287 287 289 287 286 286 286 286 287 288 288 287 287 286 284 282 282 283 284 283 284 286 287 288 289 291 290 288 290 292 290 287 287 288 290 292 295 294 293 295 295 295 296 297 299 298 297 297 292 286 284 283 282 281 279 279 278 277 277 276 275 275 274 274 274
288 290 290 288 289 289 289 291 288 285 287 285 284 287 287 286 285 283 283 285 285 285 286 286 286 287 287 285 285 285 287 287 287 287 286 285 285 285 283 281 281 283 284 285 286 286 287 288 288 288 289 291 289 284 283 284 284 286 288 289 290 290 292 294 295 293 293 296 297 297 296 290 283 282 281 280 280 279 278 278 277 276 275 275 274 273 273 273
289 290 289 288 290 290 290 290 282 279 284 286 284 285 286 285 284 282 283 284 284 284 285 285 285 285 285 286 285 284 286 287 286 285 284 284 284 284 282 281 281 282 284 285 286 286 285 285 286 286 287 288 285 281 282 282 283 285 285 285 286 287 288 292 294 293 291 293 293 293 296 289 281 280 280 278 279 278 277 277 277 276 275 274 274 273 273 273
288 288 287 288 290 289 290 289 283 282 284 283 282 282 283 283 283 282 282 283 284 284 284 284 284 284 283 283 284 284 283 284 284 284 284 284 283 282 280 280 281 282 283 285 285 286 285 285 285 285 285 286 284 282 282 283 284 285 284 283 283 284 285 286 287 287 288 291 292 294 295 288 280 280 280 278 278 277 277 277 276 275 275 274 273 273 272 273
286 286 286 287 289 289 290 290 287 285 283 282 283 283 282 282 282 282 282 282 283 283 284 284 282 283 282 281 283 283 281 282 283 282 282 283 283 281 280 281 281 281 282 284 283 283 284 284 283 284 284 286 286 285 285 284 284 284 283 281 281 282 283 284 284 285 286 288 290 293 293 286 281 280 279 278 278 277 277 276 275 275 274 273 273 272 272 272
286 286 285 285 287 288 286 284 285 285 283 284 284 282 282 283 281 282 282 282 281 281 282 282 281 282 281 280 281 282 280 281 282 281 281 281 282 281 280 281 281 280 282 284 283 283 283 282 282 283 283 283 284 285 285 283 282 282 282 281 281 281 282 284 285 285 285 286 286 287 287 283 280 280 279 279 278 277 276 276 275 275 274 273 272 272 272 271
287 288 287 285 285 284 283 281 282 284 284 285 284 280 281 283 281 281 282 281 281 280 281 281 281 281 281 281 282 282 280 279 280 280 281 281 282 281 279 280 280 280 283 284 283 283 281 280 281 282 282 281 283 283 282 281 280 281 281 280 280 280 281 283 283 282 283 283 283 283 283 282 281 280 280 279 278 277 277 276 275 275 274 273 272 271 271 270
287 288 286 285 284 283 283 282 280 280 281 283 283 281 281 283 282 282 283 282 281 281 280 280 280 281 281 281 282 281 280 279 279 280 279 280 281 279 278 279 280 281 282 282 282 282 281 281 280 280 281 281 280 280 279 279 279 280 280 280 280 280 280 281 281 281 281 281 281 281 281 280 281 281 280 279 278 277 276 275 275 274 273 272 271 271 270 269
287 286 282 283 284 282 283 283 280 279 280 281 281 281 282 283 282 282 283 282 282 281 280 280 280 280 280 280 281 281 280 279 280 280 279 279 279 279 279 279 278 280 280 280 280 280 280 281 279 278 280 280 278 278 278 278 279 279 279 280 280 280 279 280 280 280 280 280 280 280 279 279 280 280 279 277 276 276 275 274 273 272 272 272 271 271 270 269
284 284 282 282 283 280 281 282 281 281 283 283 282 282 283 282 282 282 281 282 282 281 280 281 280 280 280 280 281 281 279 279 279 279 279 278 278 279 280 280 279 279 279 279 279 279 279 280 279 277 279 279 278 277 277 277 278 279 279 279 279 279 279 278 278 279 279 278 279 280 279 279 279 278 276 274 273 274 273 272 272 271 271 271 271 271 271 270
284 284 283 283 282 281 282 282 281 282 283 283 282 282 281 281 281 281 279 280 282 281 280 280 280 280 279 279 281 280 278 278 278 278 278 278 278 278 279 279 279 278 279 279 279 279 278 279 279 278 278 279 279 277 277 277 277 278 278 278 277 277 277 277 277 278 278 278 278 278 278 278 276 274 273 272 272 272 272 271 270 269 269 269 269 269 269 269
284 284 284 284 283 283 282 278 277 282 283 282 281 280 280 281 280 280 279 278 279 280 279 279 279 278 277 278 279 278 277 277 277 278 278 278 278 278 278 279 278 278 279 279 278 279 279 278 279 279 278 278 278 277 277 277 276 276 277 277 277 277 277 278 278 278 278 278 278 278 278 278 275 271 271 271 270 271 271 270 269 268 268 267 267 267 267 267
284 284 284 284 283 282 280 276 276 281 282 281 280 279 279 279 277 277 279 279 278 278 279 277 277 277 278 279 278 277 277 277 277 277 277 277 277 277 277 277 277 277 278 278 277 277 277 277 278 278 277 277 276 276 277 277 276 276 276 276 277 277 277 277 278 278 278 278 278 278 277 276 273 271 272 271 269 269 269 268 268 268 267 267 266 266 266 266
Wind_Speed
17 18 18 18 18 18 18 18 18 16 13 13 14 14 13 13 13 12 13 15 15 12 10 10 9 10 10 9 8 7 8 8 9 12 13 11 9 11 11 12 14 13 12 12 14 13 13 12 11 11 10 12 10 12 18 13 9 8 2 3 4 3 3 2 3 2 1 1 1 4 11 9 3 8 11 7 11 12 10 14 16 16 14 11 11 11 8 7
17 18 19 19 19 19 20 19 18 16 14 14 15 13 12 13 12 12 13 13 15 15 12 10 10 10 10 9 8 7 8 8 10 13 13 11 10 13 13 13 14 14 12 14 16 15 15 15 13 12 11 10 7 9 13 11 10 7 2 2 4 3 2 1 1 1 1 2 2 4 9 8 4 7 12 6 7 12 10 11 14 16 19 18 15 14 13 11
18 18 19 20 20 20 20 20 19 16 13 15 15 13 13 13 12 12 13 14 14 15 14 11 10 10 10 9 8 8 8 7 10 14 13 13 13 12 13 14 14 14 13 14 16 16 15 16 14 13 12 8 5 9 10 9 8 7 4 3 4 3 2 2 1 1 3 6 3 3 7 7 6 8 11 5 4 8 9 10 12 16 23 24 21 18 18 16
19 19 20 20 21 22 20 18 19 16 13 14 15 14 13 13 14 12 12 13 14 15 15 12 10 10 10 8 8 7 5 5 8 10 10 14 14 11 11 12 13 13 13 14 16 16 14 15 14 13 11 5 4 7 7 8 6 5 5 2 1 1 1 4 2 2 5 7 5 3 4 5 7 9 11 6 3 4 9 17 19 21 26 25 25 22 21 21
19 20 21 21 22 23 20 18 18 15 13 13 13 13 14 14 14 14 13 12 13 15 15 12 10 11 10 7 7 6 2 2 4 4 6 12 12 10 10 11 11 13 13 15 16 15 13 15 15 12 8 3 4 4 3 10 9 3 2 1 0 1 1 3 4 4 6 5 5 4 3 5 6 8 11 9 5 3 8 17 22 24 24 22 24 23 22 22
20 21 21 21 22 22 19 18 17 15 13 13 13 13 14 15 15 14 14 13 12 13 14 13 11 10 9 6 6 7 5 1 2 1 5 9 9 9 9 9 11 12 14 16 16 14 13 15 15 12 6 2 3 3 1 9 10 4 2 2 1 1 2 5 6 7 7 3 4 4 4 6 7 4 7 10 9 4 1 7 13 18 20 18 19 22 22 23
20 20 21 21 21 20 19 18 16 14 14 14 14 14 14 15 15 15 14 13 11 11 12 13 11 9 7 6 6 9 10 6 4 2 5 9 10 10 8 7 9 12 14 16 16 15 14 15 17 13 6 1 3 4 3 5 7 5 2 1 2 2 4 8 9 8 6 4 5 4 4 4 6 3 1 9 17 10 2 1 1 6 12 13 13 16 19 20
20 20 21 21 21 20 19 17 15 15 15 14 14 14 14 15 15 15 15 13 12 11 11 11 11 9 6 6 6 7 10 10 8 6 7 9 10 9 7 6 9 12 14 16 16 16 15 16 18 14 6 4 3 2 4 3 3 4 3 2 1 3 3 6 7 6 4 3 4 3 3 1 3 2 1 10 18 14 9 6 3 2 5 10 12 12 12 12
19 20 21 22 21 19 18 17 16 16 16 16 16 14 15 15 15 16 15 14 12 11 11 10 11 10 6 6 6 4 7 9 9 9 9 10 10 9 7 6 8 13 14 15 16 16 16 15 19 15 5 7 6 2 4 4 3 5 6 5 2 3 4 4 3 2 2 2 1 1 2 2 1 1 4 13 15 12 13 11 11 9 5 6 11 12 11 10
20 20 21 21 21 19 17 17 16 17 16 16 17 16 16 15 15 15 15 14 13 11 11 10 11 10 7 8 6 2 5 6 6 8 10 10 10 9 9 8 9 13 16 16 17 17 17 14 18 17 4 6 10 4 3 5 4 3 6 7 6 6 5 3 2 2 1 2 2 2 3 2 0 1 4 9 8 7 10 12 14 13 8 4 6 9 9 9
20 20 21 20 20 19 17 16 16 16 16 17 17 17 17 15 14 14 14 14 12 11 10 10 10 9 8 9 7 4 5 5 4 6 8 9 10 10 10 9 9 12 16 17 17 18 18 13 14 16 4 3 8 3 3 6 5 3 2 3 6 6 7 5 3 3 2 2 3 1 3 4 1 1 6 7 5 4 6 9 12 12 11 9 7 7 8 7
20 21 21 19 19 19 18 17 16 16 16 17 18 18 17 15 14 13 13 13 11 9 8 8 8 9 8 8 10 8 6 6 5 5 6 7 9 10 10 10 9 11 14 15 16 15 17 14 13 15 6 3 6 2 4 8 5 3 2 2 5 5 6 7 4 4 4 2 1 2 4 6 3 4 7 7 6 7 9 8 8 9 11 13 12 9 8 7
21 21 21 19 18 18 18 18 17 16 17 17 18 18 17 15 14 12 11 11 10 7 5 5 6 7 7 6 7 9 9 8 6 5 5 5 7 9 10 10 9 11 12 12 13 12 14 14 13 14 8 4 4 2 1 3 3 2 2 1 3 5 5 7 4 5 5 3 3 4 3 5 5 7 4 5 9 9 11 10 8 6 6 11 13 11 8 7
22 21 21 19 18 18 18 18 17 16 17 18 18 17 17 16 13 10 8 8 7 5 4 4 4 5 7 5 4 6 8 8 7 6 6 5 6 7 9 10 9 10 11 10 10 10 11 12 12 12 8 4 3 2 2 3 2 2 1 0 1 1 5 6 2 7 7 4 6 7 4 6 5 7 2 4 9 10 11 10 8 6 4 5 8 10 8 5
21 21 21 19 19 19 18 18 17 17 17 17 17 17 16 14 11 8 6 5 5 5 4 3 3 4 4 4 4 4 5 6 6 5 5 6 6 6 7 8 9 9 9 9 9 10 10 11 11 8 5 4 3 3 2 4 3 1 1 1 1 3 5 7 1 8 8 4 6 8 4 7 6 7 5 6 7 9 13 10 7 6 4 2 2 3 4 5
21 22 21 19 19 18 18 18 17 17 17 16 16 15 13 11 8 6 4 4 4 4 4 2 4 5 1 1 2 2 3 4 4 4 4 5 6 5 5 7 7 8 8 8 9 10 9 9 8 5 3 4 4 4 3 2 2 2 1 3 2 3 3 5 3 6 5 2 4 6 4 4 2 2 2 4 3 2 7 8 5 4 4 4 3 5 7 9
21 21 20 19 20 19 18 18 17 17 16 15 14 12 10 8 6 5 5 4 3 2 1 1 4 4 1 1 1 1 2 3 2 3 4 4 6 5 5 6 7 8 9 8 7 8 9 8 5 3 2 2 3 5 3 3 4 1 1 3 3 3 3 3 4 3 2 3 4 6 6 6 5 2 4 9 7 4 1 2 2 1 3 5 4 7 11 12
21 21 19 19 19 19 19 19 18 16 15 14 12 10 7 4 4 4 5 5 3 3 3 4 5 3 1 0 1 1 0 3 2 2 4 4 5 5 5 5 6 9 8 6 6 8 7 4 3 1 1 2 3 5 6 6 6 6 6 4 3 2 3 4 3 2 4 3 5 5 7 10 10 8 3 5 8 8 6 3 4 8 10 9 9 12 14 13
21 20 18 18 19 19 19 20 19 17 15 13 11 9 5 3 4 2 3 4 3 2 1 1 2 2 2 2 1 2 1 2 1 2 4 4 4 5 4 3 5 9 8 4 4 8 6 3 2 2 4 5 7 10 10 5 6 9 7 4 4 3 4 4 4 4 4 4 5 8 7 10 12 11 6 4 6 8 9 9 13 15 15 14 13 14 15 15
20 19 18 17 18 18 18 19 18 17 15 13 12 8 3 3 2 0 3 4 4 4 2 4 4 2 3 4 3 4 2 2 2 2 4 5 5 4 4 4 5 6 6 4 3 5 6 3 4 6 6 8 10 9 6 3 3 6 5 4 5 5 5 4 3 5 1 4 5 7 6 8 11 10 5 4 5 8 12 15 18 18 17 17 16 17 17 17
19 18 18 17 16 16 16 18 17 17 17 16 13 6 4 6 3 2 6 4 5 6 4 5 5 4 4 4 4 3 2 2 3 3 3 5 6 5 4 4 4 2 2 3 3 3 4 6 7 6 5 8 8 5 4 2 3 4 5 5 5 5 5 5 3 4 1 3 3 2 5 10 10 8 5 2 4 8 12 13 15 17 20 20 19 19 19 17
18 17 18 16 15 15 15 15 15 16 17 15 10 6 10 9 5 2 4 2 3 6 4 5 6 4 5 4 3 2 1 1 1 3 2 4 6 5 3 4 3 2 1 2 3 3 3 6 6 4 4 4 4 4 5 3 2 4 2 4 3 4 3 4 2 3 1 3 3 2 4 8 9 7 4 4 6 10 16 18 18 20 22 22 21 20 20 19
17 18 17 16 14 14 13 12 13 16 15 11 10 11 11 8 6 5 4 1 3 5 6 6 8 8 7 5 3 3 2 2 1 1 0 3 6 3 1 4 3 2 2 3 4 4 3 5 4 4 6 6 3 3 6 3 2 3 3 4 3 2 2 3 3 1 2 0 1 3 3 6 6 3 4 8 12 16 20 24 25 24 22 21 22 23 23 24
17 17 16 15 14 13 12 9 11 13 13 12 12 12 10 7 5 4 4 2 1 3 5 6 8 9 8 7 5 4 3 3 2 2 1 1 4 2 1 4 3 2 3 4 4 3 4 3 2 5 6 7 4 3 6 5 4 4 4 5 3 3 5 3 2 1 2 1 1 3 2 5 5 1 3 6 13 16 18 22 25 24 21 22 24 26 27 27
16 16 16 15 13 12 10 8 10 11 10 10 11 11 9 6 5 4 4 3 1 2 3 4 5 6 7 6 5 4 3 3 3 2 2 2 4 2 0 3 2 2 3 2 2 4 6 2 5 5 3 6 6 4 6 7 5 4 5 8 6 7 7 3 3 3 3 2 2 2 0 4 5 1 2 1 7 11 14 17 19 20 20 21 24 25 26 27
16 16 16 15 13 12 8 7 11 10 7 8 11 10 8 5 4 3 2 3 2 2 2 2 2 5 7 5 6 4 1 2 3 2 2 2 2 2 1 1 1 1 3 3 2 3 3 0 3 5 4 5 5 4 5 7 5 3 4 7 8 6 7 7 6 4 2 4 2 2 4 4 5 4 2 2 7 9 11 14 15 17 18 19 19 20 23 26
15 15 15 15 13 11 7 7 9 8 6 8 11 9 7 6 3 1 2 4 3 1 2 2 1 5 8 5 7 3 0 4 4 3 2 2 1 2 1 1 1 0 1 2 0 1 1 2 3 4 4 4 5 3 5 9 6 2 2 5 8 7 7 8 8 5 2 3 2 2 3 2 3 2 0 5 9 9 10 12 13 16 17 17 18 18 21 24
15 14 14 14 13 11 9 8 7 8 7 8 11 10 7 4 1 2 4 3 2 1 2 2 1 6 9 4 6 4 1 4 3 3 4 3 1 2 1 1 2 2 1 3 2 3 0 2 2 3 3 3 4 3 5 10 6 2 1 4 6 5 6 5 6 4 1 1 2 4 2 3 5 4 1 4 7 7 9 10 10 13 16 16 18 19 21 23
14 14 13 13 13 12 10 9 7 7 8 9 11 10 6 2 1 3 4 1 1 2 2 3 2 8 12 4 4 6 4 4 3 2 3 4 3 3 2 0 3 3 1 2 3 3 0 1 1 3 3 2 2 2 2 6 4 2 4 6 6 6 5 4 4 4 3 1 5 7 5 3 4 4 1 3 5 5 5 7 8 11 15 15 17 21 25 27
13 13 12 12 10 9 9 7 8 8 7 8 12 10 4 2 2 4 3 1 0 2 3 4 3 8 12 5 4 8 5 3 6 5 2 3 4 5 4 1 3 3 0 3 1 3 2 1 2 1 1 2 3 2 2 2 4 5 5 6 7 6 4 4 2 3 3 3 7 8 7 4 4 3 0 2 4 3 4 5 6 10 14 15 18 25 29 29
12 12 12 11 9 7 6 6 7 7 6 8 11 9 3 1 4 5 1 2 1 3 4 4 4 6 8 4 2 7 5 4 8 7 4 3 4 7 6 1 2 3 2 4 2 3 5 1 2 1 1 1 3 4 4 3 3 5 4 5 5 3 4 4 4 3 2 6 6 3 4 5 4 4 1 4 5 6 5 5 5 8 11 12 16 25 30 31
12 11 10 10 8 7 7 7 8 7 6 8 10 7 2 2 3 1 2 3 2 3 3 2 4 5 6 4 3 5 4 4 6 5 3 2 4 5 5 2 2 2 3 2 2 4 3 2 1 1 1 4 3 3 5 4 3 4 4 5 4 2 3 1 3 0 3 6 2 2 1 3 3 2 4 6 7 8 7 7 6 6 8 10 15 24 30 31
12 10 9 8 7 7 8 11 11 9 8 7 7 5 4 4 1 2 2 3 0 2 3 2 4 4 4 4 4 5 3 3 5 4 2 2 4 3 3 5 4 1 1 1 1 4 3 3 4 2 2 6 3 3 1 1 0 3 4 5 4 2 2 3 4 1 4 5 2 2 1 1 3 1 6 7 8 9 8 9 8 7 8 10 15 23 29 31
11 9 7 7 7 7 10 12 12 10 7 5 3 3 5 1 2 1 3 2 2 3 3 2 4 4 4 3 3 5 2 2 5 5 3 3 4 2 3 8 9 3 1 1 1 1 1 4 4 1 2 5 4 1 2 3 3 3 3 5 4 5 4 5 4 3 4 1 2 2 1 2 3 3 7 9 10 9 9 9 8 8 9 11 16 23 29 30
10 7 6 6 7 9 11 10 11 9 4 1 3 6 3 3 2 2 2 4 2 4 4 2 2 3 5 3 3 5 3 2 5 5 5 4 3 2 3 5 8 6 2 1 1 1 0 4 4 3 3 3 4 2 1 3 1 2 2 4 2 5 4 2 4 4 3 1 1 2 1 1 2 5 6 9 9 8 8 7 7 8 8 11 17 23 27 28
8 5 4 5 6 9 9 7 8 7 0 3 5 5 3 3 1 1 1 2 1 3 5 4 5 4 4 4 4 6 4 2 5 5 4 3 3 3 3 2 5 6 3 1 1 1 1 3 4 4 2 2 3 3 2 1 2 0 2 3 2 2 6 3 2 1 3 1 3 3 2 1 3 3 4 7 6 6 5 5 7 8 9 11 15 20 24 26
8 4 3 5 6 7 6 6 7 4 1 3 6 3 3 2 0 1 3 4 2 2 3 2 3 3 2 3 3 7 6 4 4 4 3 2 3 4 4 2 4 6 4 2 1 1 0 4 4 4 1 2 5 3 2 3 2 3 2 3 1 1 4 3 2 2 2 4 4 2 5 5 4 3 6 9 7 5 5 4 6 7 10 12 14 17 22 24
6 2 3 6 7 6 5 7 6 2 3 5 6 3 2 0 2 2 4 4 2 1 4 2 1 1 2 1 2 5 5 4 4 4 3 1 2 4 3 3 4 8 8 4 1 1 1 3 5 3 2 6 8 2 1 4 3 3 2 1 2 2 1 2 3 1 2 5 5 3 3 4 4 4 8 11 10 8 5 4 5 7 9 10 12 15 20 22
4 1 4 8 8 7 7 6 4 2 5 5 3 2 1 1 2 6 7 4 1 2 3 1 1 2 2 1 1 3 4 3 3 3 2 1 2 4 5 2 4 11 13 6 1 2 2 0 4 4 3 5 6 3 0 4 5 3 2 3 3 2 3 2 3 2 3 5 6 5 3 1 1 3 9 11 9 9 6 5 5 6 8 8 10 13 18 21
2 1 4 10 10 7 5 3 5 7 6 3 2 1 0 1 2 9 13 6 2 3 2 1 2 2 1 1 1 2 3 2 2 2 2 2 2 2 6 4 2 9 14 7 3 2 3 2 3 5 6 3 3 2 1 1 3 4 4 3 3 2 1 1 1 2 4 3 4 5 4 1 2 2 8 11 10 8 7 6 5 5 7 7 9 12 16 19
1 1 5 12 10 4 4 6 8 7 4 2 1 0 1 3 2 9 14 9 5 6 5 3 3 2 1 1 2 1 2 2 2 2 1 3 3 2 5 6 4 5 8 5 4 2 2 2 2 3 4 2 1 1 2 1 1 1 2 2 2 2 1 1 4 1 2 2 4 4 4 1 3 3 7 10 8 8 7 6 5 5 6 6 8 11 15 18
3 2 7 12 8 4 6 7 6 3 3 2 2 2 3 4 3 6 11 10 7 6 7 5 3 2 2 1 1 2 2 1 2 2 1 1 2 1 6 12 9 4 2 2 3 1 2 1 1 2 2 3 3 1 2 2 1 2 2 2 2 1 1 1 4 2 2 2 1 2 3 1 3 5 7 8 8 8 8 7 6 5 5 6 8 11 14 17
6 4 8 10 5 4 6 6 4 4 3 1 1 4 5 4 3 5 7 8 5 5 5 4 2 3 2 1 2 2 3 1 0 2 2 0 2 2 7 16 14 6 3 1 3 1 2 1 1 3 4 3 5 3 2 1 1 3 2 3 3 2 2 0 2 1 1 2 1 2 4 1 2 4 8 9 9 9 7 6 6 5 4 5 8 10 13 17
10 10 14 13 5 0 4 3 1 2 2 2 4 5 6 5 5 5 4 5 4 2 3 2 2 3 1 2 3 2 3 2 0 2 2 1 1 3 10 17 13 6 3 2 2 2 2 1 2 3 5 5 5 5 5 4 3 2 1 2 3 3 4 2 1 1 1 1 2 3 4 2 4 5 7 8 8 7 6 6 5 4 4 4 7 10 12 16
7 9 15 19 12 7 7 5 6 5 2 3 5 4 3 4 5 5 4 4 5 4 3 1 2 3 2 3 4 3 4 3 1 2 2 2 2 2 11 16 11 6 6 6 4 2 0 1 2 1 3 4 2 2 3 3 2 2 2 2 2 4 5 2 1 1 2 0 4 1 1 3 4 5 6 5 5 5 5 5 5 5 5 4 6 9 11 15
3 2 6 15 19 21 17 10 8 7 4 3 4 2 2 2 2 4 5 5 6 6 5 3 2 3 4 4 4 4 4 3 2 1 1 3 2 2 10 14 9 7 8 9 7 3 2 1 1 4 5 5 5 5 3 1 1 3 3 4 2 1 1 1 0 1 1 2 3 0 2 3 2 4 5 4 3 4 4 4 4 4 5 4 6 7 8 13
3 2 1 5 11 16 16 13 10 6 3 4 2 0 2 1 2 4 4 4 5 6 5 5 4 4 4 4 3 2 3 4 3 2 1 2 2 4 9 8 7 9 8 7 7 4 3 2 1 4 5 6 4 4 3 2 2 5 6 6 4 2 0 2 3 4 1 2 3 0 4 2 3 3 3 3 2 2 3 3 3 3 4 5 6 7 9 12
4 3 4 3 2 3 6 8 9 7 4 4 3 1 2 3 3 3 2 2 4 5 4 4 5 5 3 3 3 1 3 3 3 2 1 2 3 5 8 5 4 10 10 6 6 4 3 3 2 3 4 6 3 4 4 1 4 5 5 6 6 4 2 3 6 5 3 2 5 0 3 6 6 1 2 3 3 3 3 3 2 2 5 7 9 11 12 14
10 8 7 7 5 3 4 5 8 9 6 4 3 3 3 3 3 1 1 3 4 5 4 3 2 4 3 3 5 3 1 2 2 2 1 1 2 2 4 4 2 10 11 5 3 3 3 1 2 2 3 6 5 5 4 3 4 4 5 6 6 5 5 5 5 3 3 5 7 4 6 9 5 1 4 5 5 4 5 4 2 1 5 8 10 13 14 16
9 8 9 13 12 8 8 6 6 7 6 4 4 3 3 3 2 2 3 4 1 3 4 3 1 3 3 4 5 3 1 2 1 2 1 1 2 0 1 1 0 5 7 4 3 3 2 0 0 3 2 6 5 4 3 3 3 4 6 6 5 6 6 4 4 3 2 5 7 6 8 6 1 4 6 6 5 4 5 3 2 1 2 5 8 11 14 16
11 13 16 16 9 5 5 5 4 4 3 3 2 2 2 1 1 1 4 5 3 2 2 3 3 2 3 5 5 2 1 1 2 3 2 1 2 2 1 0 1 3 4 2 3 3 2 1 2 4 3 6 5 4 4 2 2 4 8 8 7 6 4 3 4 4 4 5 6 7 6 4 1 3 4 5 4 3 3 2 1 1 3 4 6 8 11 15
17 17 13 10 6 3 3 3 4 4 2 1 2 2 0 2 3 3 3 4 6 6 4 3 5 3 4 4 3 1 2 4 5 6 7 6 6 5 5 4 2 1 1 1 2 2 2 1 1 2 2 5 4 4 4 4 4 6 6 5 8 7 5 5 5 5 5 5 5 6 4 1 2 3 3 3 3 2 0 1 2 3 5 6 8 9 12 14
Wind_Direction
343 342 341 339 339 335 329 327 327 327 322 315 314 311 312 313 315 316 314 313 312 311 310 306 299 294 293 291 285 268 255 249 248 247 245 245 233 228 227 222 223 227 225 218 213 211 195 179 181 184 182 183 188 194 195 197 185 189 212 227 229 205 205 173 177 196 101 1 338 201 194 191 194 187 191 193 203 208 207 213 218 218 217 209 190 190 216 222
341 339 340 338 337 332 328 326 325 327 323 318 314 306 304 306 308 313 311 309 308 308 309 309 301 293 292 290 284 269 260 254 251 250 247 244 233 227 228 225 226 227 227 222 212 208 195 178 179 185 180 178 186 191 195 198 187 192 217 224 228 194 200 203 146 69 25 302 301 234 219 212 213 180 181 182 196 202 210 219 222 229 229 229 219 205 219 232
339 339 337 335 335 331 329 325 323 324 321 319 317 307 303 301 304 309 308 308 305 304 305 308 304 294 292 287 280 271 265 265 259 257 248 236 233 228 228 227 226 228 228 220 205 203 196 180 179 184 183 184 190 187 190 193 190 205 213 228 236 190 203 251 199 54 287 268 277 254 222 221 231 182 180 190 178 190 212 217 213 225 229 230 230 221 218 227
338 337 334 334 332 328 327 323 320 322 322 321 318 312 307 304 304 306 306 306 302 300 301 305 306 297 294 285 273 263 267 285 269 261 242 228 231 226 226 227 226 228 222 205 193 194 192 183 183 185 186 198 204 198 196 189 184 196 201 219 251 131 248 263 269 278 281 269 250 224 194 216 219 189 187 177 156 202 228 224 219 223 227 228 231 233 228 230
337 336 334 335 331 328 327 322 322 326 326 321 316 311 310 308 307 306 306 304 299 297 296 301 304 298 297 282 261 241 213 318 278 258 225 218 224 220 221 223 222 220 205 190 184 186 189 187 185 184 190 205 198 212 216 193 192 206 213 272 327 96 280 288 326 306 295 280 232 196 176 197 186 191 199 182 181 230 241 237 234 231 232 234 237 242 243 243
337 337 336 335 333 332 331 326 327 331 329 322 317 314 313 311 309 307 305 303 299 294 292 297 299 297 293 273 246 216 189 256 301 255 197 196 203 209 214 216 212 206 192 183 181 182 186 185 183 184 189 213 216 216 210 196 199 226 278 345 314 188 248 302 338 327 313 290 219 196 195 182 159 186 211 205 216 221 274 248 242 239 236 238 241 243 247 251
337 337 337 337 335 333 331 329 331 333 329 326 323 319 316 313 311 310 306 304 298 292 288 291 293 291 282 261 234 212 213 245 274 244 198 183 187 197 200 204 203 199 187 182 183 183 183 181 183 184 173 186 250 236 240 212 197 215 257 304 294 250 252 286 304 305 306 282 257 222 196 175 174 194 212 226 229 221 195 141 172 238 229 226 229 235 241 246
338 338 338 337 333 332 332 331 333 333 327 329 327 322 320 316 313 311 308 305 297 292 285 283 286 281 265 242 225 217 229 246 250 237 210 190 190 195 194 192 198 198 189 185 187 185 184 185 184 180 175 203 233 232 222 232 201 216 239 196 235 275 278 293 289 281 285 274 271 218 195 108 191 219 314 245 238 230 231 234 255 267 221 218 217 220 227 231
339 338 339 336 334 333 333 333 334 331 329 332 330 325 323 318 315 312 309 305 297 292 284 278 276 269 252 223 210 218 245 247 245 238 220 206 207 213 211 202 201 199 194 191 191 191 190 191 188 180 182 209 218 249 195 200 228 224 232 220 228 290 313 317 274 238 269 255 225 229 280 6 99 322 277 254 255 249 242 246 255 262 264 238 222 220 220 215
338 338 340 338 336 335 334 336 336 333 334 334 329 326 325 320 317 313 310 306 299 293 284 275 266 255 236 207 182 195 254 250 239 233 225 220 219 225 229 222 211 204 202 198 196 200 198 197 194 187 184 204 205 239 188 186 226 231 230 233 244 266 291 308 255 224 273 282 262 249 283 299 38 37 255 257 277 275 248 244 248 251 255 252 226 216 210 206
338 339 339 337 335 334 337 340 338 337 337 333 329 326 324 323 321 316 312 307 300 294 281 271 256 240 226 206 188 201 245 245 224 223 228 232 229 231 234 225 216 209 209 208 205 208 206 204 196 189 196 210 191 212 223 212 236 246 204 241 268 274 278 272 247 249 234 276 272 206 282 288 58 155 239 257 297 307 270 251 249 246 242 244 237 216 201 199
338 338 336 334 332 333 338 341 340 340 337 332 329 325 325 325 324 319 315 309 300 293 282 269 247 228 220 216 220 228 237 234 221 217 226 236 235 234 231 221 218 213 212 213 212 213 211 209 199 193 194 170 165 144 234 226 230 227 165 256 300 331 288 246 214 214 185 226 238 93 307 275 223 222 235 247 261 272 272 264 258 250 242 238 232 221 204 195
336 336 336 333 332 333 338 340 341 342 337 331 328 327 327 327 326 323 315 308 300 298 287 260 233 221 215 221 239 239 238 235 226 221 225 238 239 234 230 223 221 216 211 212 212 212 210 209 204 201 194 159 168 140 214 208 158 159 126 190 288 352 302 242 194 169 162 202 172 122 281 256 248 258 221 233 249 253 257 251 249 253 245 232 224 220 209 198
339 339 338 335 333 333 337 341 343 343 337 331 330 329 328 327 328 325 316 308 302 299 284 249 226 216 212 226 263 247 238 236 233 235 235 236 234 231 230 225 224 220 214 211 210 206 201 201 200 199 200 189 190 158 45 22 95 142 106 121 213 203 275 277 202 159 164 213 172 140 243 248 261 272 259 277 262 249 247 238 232 243 251 236 224 221 219 204
341 339 338 336 333 332 337 343 344 342 338 334 332 331 328 327 329 331 328 319 308 293 280 251 219 205 210 242 269 252 237 231 231 234 230 223 225 229 225 221 222 216 211 206 202 197 187 187 189 188 195 182 147 122 43 357 16 84 180 257 233 184 264 305 282 179 183 212 174 150 233 266 267 267 287 309 283 252 241 231 229 243 229 180 136 165 168 128
339 338 339 336 331 334 337 343 346 341 340 338 334 332 327 327 334 345 354 341 322 297 282 250 209 192 182 302 260 223 209 214 220 219 216 212 216 219 214 210 207 200 198 197 193 189 183 178 180 180 169 156 132 106 72 3 314 356 188 213 224 185 247 308 298 221 199 151 189 196 224 274 264 240 14 26 12 255 231 232 244 261 222 176 119 94 96 83
339 340 339 334 332 338 338 342 346 341 342 341 336 334 329 332 349 3 16 11 5 2 12 139 169 182 227 288 215 179 178 192 207 212 208 205 209 208 205 198 191 190 185 184 184 181 183 175 172 192 147 127 131 116 116 230 234 263 223 216 228 185 184 259 291 259 184 144 209 224 229 239 226 203 60 53 48 55 71 265 273 42 109 133 108 69 58 52
340 338 336 334 335 339 339 342 344 342 345 344 341 343 337 337 344 351 14 19 30 51 76 103 119 152 245 344 105 355 233 195 207 212 202 198 202 197 199 197 186 185 172 168 180 173 178 169 135 152 137 141 140 151 191 213 198 193 199 204 219 203 201 235 264 212 150 166 203 205 231 245 251 261 288 26 31 36 32 22 50 54 60 66 56 45 40 40
337 335 338 339 339 340 339 340 342 343 346 347 353 354 346 332 316 319 18 14 32 79 92 35 71 159 263 334 340 302 280 199 223 217 199 191 189 187 191 189 175 171 156 143 183 176 162 113 97 187 204 190 184 195 203 187 174 192 192 173 170 192 234 237 255 255 166 150 207 204 219 243 250 261 273 315 356 13 8 24 45 44 45 46 41 38 39 43
337 338 341 341 343 341 339 339 340 340 343 356 4 357 355 358 335 283 2 18 69 70 24 348 347 317 301 318 305 282 258 233 250 224 198 192 181 178 174 160 151 156 154 145 176 179 157 154 210 209 201 199 205 206 189 113 126 163 162 175 190 194 242 251 250 290 199 154 230 217 220 248 251 260 276 303 334 6 11 26 41 44 45 44 44 45 49 53
340 339 339 342 345 343 341 339 338 343 350 358 0 9 65 47 50 328 338 16 66 30 5 6 359 345 335 329 323 306 245 229 242 219 207 196 178 178 182 159 135 148 195 150 129 120 151 202 224 209 196 196 199 176 133 99 75 103 157 193 217 204 236 255 228 311 314 177 261 208 211 251 257 264 277 343 20 29 32 37 38 46 54 51 51 52 56 59
338 335 338 343 348 347 342 337 341 351 352 350 358 55 79 67 80 42 349 354 16 14 31 29 22 17 0 343 344 10 134 103 179 202 203 193 183 189 188 147 136 174 190 124 112 100 184 232 231 194 172 144 138 144 160 191 103 94 129 164 222 222 239 275 254 326 8 185 270 158 187 250 261 265 302 31 70 63 57 63 55 53 57 50 49 50 53 57
333 334 337 341 350 349 340 341 349 348 347 357 27 59 69 63 69 58 38 355 335 30 60 47 46 48 32 29 56 68 79 73 83 164 139 195 188 190 156 136 133 142 158 175 166 154 193 244 243 175 145 124 113 157 166 182 176 156 133 150 220 218 186 260 243 311 17 125 220 151 190 271 279 295 32 50 78 75 62 67 63 58 59 53 54 54 54 57
332 333 333 339 352 349 341 348 350 348 357 14 34 49 52 45 44 40 38 55 353 35 57 55 55 50 42 51 55 44 55 72 57 53 49 177 168 163 160 144 129 134 194 210 187 198 238 240 153 139 150 154 151 159 168 183 224 217 191 184 195 182 192 229 197 128 16 338 105 98 7 309 285 238 101 58 68 65 50 56 55 50 55 57 60 59 58 58
332 332 334 341 352 352 346 347 352 4 18 22 30 36 37 25 19 21 31 65 35 354 39 50 46 38 34 40 30 18 49 65 44 39 59 109 142 155 4 133 139 198 204 180 171 251 269 220 123 123 159 172 161 180 186 181 207 238 226 203 187 182 186 166 134 100 57 285 255 109 264 296 304 319 152 1 54 56 41 47 46 38 43 49 52 53 55 58
333 335 337 341 353 357 351 353 1 11 22 25 28 26 23 13 10 22 38 64 30 324 14 19 13 15 6 357 357 0 32 26 26 33 58 106 121 120 104 107 86 195 188 159 159 250 259 82 100 131 161 175 184 215 198 174 181 232 238 199 174 157 154 147 147 127 130 234 276 113 182 256 316 10 40 67 74 65 45 46 44 38 38 41 43 42 46 52
335 338 339 341 353 2 4 7 6 14 22 21 21 14 6 6 12 35 45 49 20 333 21 359 333 4 355 340 353 18 171 339 9 35 47 126 97 95 148 290 40 141 187 121 87 268 198 18 33 128 135 152 191 229 200 175 167 225 254 173 156 146 154 165 162 156 197 224 335 20 151 214 282 302 190 105 81 57 42 42 39 38 37 38 37 34 39 46
339 343 343 342 350 4 14 13 10 24 25 13 10 3 352 359 54 118 78 67 336 9 39 354 67 12 1 7 21 49 82 345 14 27 34 87 64 64 139 250 163 191 353 120 197 281 31 36 24 150 135 152 198 248 203 175 168 267 280 126 133 135 145 155 148 148 350 60 271 277 156 173 260 269 260 108 84 54 44 40 34 34 32 31 31 34 44 51
346 347 345 343 349 358 1 3 11 19 15 6 2 354 347 6 129 87 73 107 312 58 43 351 22 354 349 5 36 34 36 15 31 3 24 73 44 46 83 197 137 144 8 106 201 257 86 159 232 149 146 186 215 301 219 168 176 199 125 93 77 68 75 82 111 121 46 45 227 228 176 176 267 278 307 81 75 66 62 51 39 35 34 32 35 45 55 59
349 345 344 345 350 352 348 355 3 358 354 356 355 355 15 82 97 66 47 219 13 17 343 357 350 335 349 5 9 15 31 14 8 6 33 64 41 45 68 93 91 119 20 9 228 239 314 281 235 159 171 196 145 53 19 121 148 145 111 75 63 45 40 49 51 88 75 264 238 216 185 181 256 268 273 54 48 72 107 78 46 38 39 40 45 52 57 58
346 344 343 343 345 350 350 349 354 349 334 341 350 358 29 58 72 89 104 253 356 346 350 7 345 346 9 28 339 356 9 347 356 13 21 23 27 24 28 28 30 47 12 347 303 306 344 329 233 260 254 160 117 65 31 58 103 101 89 84 81 10 11 29 356 49 154 243 259 247 189 164 225 255 82 69 53 63 91 87 64 50 42 37 42 50 54 54
345 342 339 339 339 350 354 344 350 351 328 336 348 351 53 36 20 138 271 327 346 338 359 344 331 356 4 11 358 337 338 341 0 31 41 26 40 27 29 34 337 352 349 309 288 341 330 221 271 334 48 46 75 78 36 7 20 62 86 97 98 358 13 9 282 249 221 248 286 313 169 131 227 233 101 89 73 69 78 83 82 72 51 33 37 47 51 52
340 337 335 331 328 342 347 341 343 339 322 330 338 349 73 76 330 240 318 349 337 319 344 317 331 0 351 5 3 330 337 0 352 16 51 69 72 66 49 30 5 296 278 279 322 358 325 296 345 357 31 21 39 136 86 307 280 115 132 124 133 140 121 224 238 258 261 265 295 278 137 129 260 129 108 104 91 87 87 84 82 75 59 42 40 46 49 49
336 334 327 321 321 330 338 336 332 330 323 318 331 33 68 119 239 43 353 292 257 316 317 302 330 1 28 40 343 328 15 20 349 7 10 28 56 42 10 14 9 9 88 22 354 70 241 280 327 349 314 358 20 129 157 158 160 187 162 132 153 170 170 211 216 212 235 268 332 284 170 201 234 93 103 110 101 100 95 85 77 64 53 44 42 44 46 46
334 328 318 321 323 323 331 333 331 338 331 248 58 64 100 230 249 65 332 263 274 318 307 334 36 34 18 4 334 356 32 351 352 19 22 26 50 22 358 2 2 8 46 24 298 113 170 259 276 300 288 355 10 325 83 95 163 247 123 112 183 193 156 166 193 180 168 108 342 255 205 199 123 85 100 113 108 108 99 78 63 49 38 41 40 40 43 43
331 329 332 329 320 321 333 340 340 352 17 154 70 61 178 207 232 183 308 291 268 318 318 346 45 56 357 330 341 356 2 0 3 19 37 50 59 32 13 359 7 18 36 38 263 68 14 278 291 319 293 54 8 302 0 45 224 227 115 168 233 164 112 114 233 50 76 210 238 173 154 121 120 120 140 138 126 117 102 68 57 45 35 40 38 36 39 40
334 341 343 332 331 335 343 351 352 4 89 108 82 80 204 193 3 248 333 327 269 322 6 5 20 42 355 322 336 337 337 354 7 14 36 56 45 20 358 347 24 28 15 333 245 150 171 272 310 352 273 314 343 318 3 22 104 102 175 212 251 64 93 112 223 5 39 242 253 178 165 170 176 168 152 162 160 130 106 69 58 43 37 40 34 33 36 37
340 333 338 343 347 350 351 353 349 0 85 73 80 100 169 105 24 349 335 327 274 356 51 79 314 40 81 1 325 330 339 356 7 17 27 21 31 35 23 342 348 0 356 352 301 128 92 287 306 349 277 307 347 2 271 354 37 113 225 263 86 173 221 131 177 199 215 234 261 253 193 182 202 178 157 171 164 136 118 79 61 40 36 35 27 28 33 35
346 304 356 351 339 341 352 354 353 70 79 69 84 123 152 141 35 22 3 348 335 37 59 92 353 41 73 82 313 329 355 20 18 19 27 35 45 44 36 359 319 340 346 3 45 309 46 57 284 315 311 313 359 29 292 339 345 3 350 350 49 150 190 176 180 164 174 222 246 247 216 173 258 169 151 153 137 124 117 85 66 46 41 34 24 25 28 30
358 167 5 351 340 337 347 16 57 69 71 83 136 169 123 141 32 20 23 28 46 42 62 129 35 47 47 68 92 356 11 35 35 32 23 30 63 56 31 17 311 332 337 358 67 346 22 97 254 310 341 339 19 42 65 3 333 351 3 343 351 347 272 281 275 113 122 188 233 240 230 216 9 69 125 120 110 113 111 95 82 60 49 39 29 26 26 27
34 140 354 355 5 33 80 71 58 60 75 88 100 128 33 85 46 9 22 44 65 55 71 97 68 72 106 63 58 27 29 29 24 57 57 16 38 58 20 2 318 316 333 359 46 21 27 89 246 316 347 349 65 167 196 210 246 358 349 334 357 330 302 249 249 228 99 185 185 202 241 272 58 77 98 99 102 105 99 99 99 73 52 39 31 26 24 23
80 97 353 3 31 78 87 68 41 48 94 78 57 46 34 61 53 2 12 34 52 49 58 75 64 61 85 58 34 46 58 38 5 45 89 28 43 33 356 359 351 338 2 355 342 1 114 104 294 290 268 258 285 274 195 232 218 94 55 12 17 348 62 189 244 290 355 283 143 168 246 337 79 95 98 102 105 101 95 95 98 85 59 38 28 22 20 19
74 57 3 11 42 78 75 64 18 28 67 70 58 48 42 51 41 15 16 26 32 33 43 50 38 56 74 34 52 48 25 16 214 50 65 206 75 57 11 13 10 5 40 15 321 13 76 68 311 295 305 315 315 326 15 348 38 81 49 22 20 352 30 193 249 19 333 282 19 214 233 184 112 115 110 115 112 106 100 89 90 93 66 37 25 18 12 12
76 58 33 23 7 130 92 101 111 73 69 67 56 38 43 59 42 28 27 16 16 48 63 31 16 49 53 45 71 56 13 33 340 29 68 125 49 38 19 19 19 21 27 347 320 6 28 45 54 349 330 333 338 345 352 352 19 53 347 5 19 358 0 328 271 57 250 243 101 216 243 94 128 135 118 121 117 111 101 83 84 84 65 37 22 16 6 3
85 61 42 37 47 88 94 113 133 122 120 80 61 18 20 53 38 37 55 32 32 69 84 25 12 52 53 55 58 27 18 54 25 346 33 351 302 4 10 7 11 14 350 334 343 11 44 88 95 98 279 280 288 287 294 316 336 3 358 344 2 13 11 348 355 24 251 31 63 184 225 79 110 137 137 137 122 118 109 85 74 69 66 46 23 15 1 358
81 67 36 36 54 72 73 76 99 111 138 118 85 23 40 70 12 29 57 44 35 54 64 46 23 45 44 47 49 21 5 20 28 33 27 329 295 340 357 355 360 1 346 351 9 43 87 47 165 171 211 233 219 227 241 29 333 292 317 318 320 3 25 102 31 286 234 8 1 226 120 89 138 166 166 162 130 129 126 96 74 57 53 41 25 18 1 356
66 69 62 30 47 61 62 56 64 87 141 125 112 27 57 54 331 13 42 54 50 58 62 43 33 46 46 49 67 34 346 353 359 8 356 307 285 318 341 350 5 359 349 359 7 38 97 328 250 170 224 243 222 245 294 27 274 266 293 303 295 278 233 140 216 235 95 26 296 87 61 7 240 184 161 173 148 127 119 92 79 50 25 4 356 1 358 355
84 97 89 83 62 48 51 53 61 73 92 97 107 134 66 44 41 38 19 39 52 51 57 44 38 59 93 109 108 66 348 7 355 331 334 331 321 339 344 344 21 15 11 13 13 61 125 256 243 163 260 275 259 271 285 268 247 255 266 275 279 281 265 221 236 234 136 191 252 296 13 295 277 302 115 138 122 116 118 96 79 7 329 324 331 342 347 350
107 107 75 73 93 114 110 95 81 74 70 75 80 85 87 71 63 45 8 36 22 11 47 90 28 38 70 103 109 110 9 19 326 276 179 344 317 344 343 313 16 28 23 16 8 64 117 248 236 151 307 311 297 272 254 223 254 266 257 260 270 271 259 250 260 255 167 217 250 266 272 272 283 43 110 116 106 114 121 115 107 324 304 310 324 333 338 342
121 122 106 96 91 89 92 85 76 72 54 43 59 68 81 81 52 4 31 57 27 340 38 87 84 44 63 75 90 105 93 72 303 268 159 47 333 54 62 257 346 17 15 19 354 11 76 2 349 91 2 305 299 290 245 215 238 268 273 277 281 280 277 268 263 262 235 245 254 251 255 263 308 86 101 112 116 116 117 115 113 147 267 296 318 326 330 334
125 129 124 112 90 59 74 67 62 85 54 18 65 91 55 70 182 119 46 42 79 105 70 111 139 83 43 50 70 106 196 174 225 273 297 279 270 258 255 13 30 355 355 11 346 356 63 12 353 39 352 285 301 331 305 317 3 279 269 270 264 264 272 253 234 233 228 248 268 272 274 275 156 111 105 110 106 98 105 93 67 199 243 286 307 315 322 327
127 129 126 111 83 36 67 65 43 78 93 41 92 101 44 228 200 138 100 38 54 78 82 117 129 94 30 32 41 346 317 310 290 294 296 279 268 269 275 290 312 264 235 34 353 351 89 111 346 27 317 280 305 331 336 13 354 283 263 252 242 238 242 245 250 254 234 228 259 274 276 268 155 145 148 135 109 94 197 311 293 253 255 282 295 304 315 322